Showing default

FLOCK 4BE 30, 60499

Orbit data source: Space-Track

FLOCK 4BE 30, 60499 is a payload satellite owned by Planet (US) in SSO that was launched on Fri, 16 Aug 2024 UTC via an FALCON 9 launch vehicle from the Air Force Western Test Range (AFWTR). Payload-class satellites include a variety of spacecraft equipped with specific instruments for various scientific and technological missions. These include communications satellites like Starlink; space stations such as the ISS; scientific satellites like the Hubble; Earth observation satellites from companies like Planet Labs, Umbra, and HawkEye 360; GPS; miniature CubeSats for education and research; and military/defense satellites.

Loading next visibility...
Identifier
60499, 2024-149AH
Orbit
SSO
Country
Flag of USUS
Related business
Manufacturer
Planet
Mission
Partially operational Commercial Imaging
Bus & Motor
CUBESAT 3U, Unknown motor
Mass
5.7 kg wet, 5.7 kg dry
Launch date (UTC)
2024-08-16 (2 years ago)
Launch vehicle
FALCON 9
Launch site
Air Force Western Test Range (AFWTR)
Object type
Payload
Rocket body
Debris
Shape & HBR
Box + 2 Pan, 1.0 m
Radar Cross Section
0.072 m², Medium (>0.1 m² and < 1m²)

Expand to show TLE details & history
Last TLE update: 8 hours ago

TLE from 8 hours ago
0 FLOCK 4BE 30
1 60499U 24149AH  26126.20747741  .00082256  00000-0  15743-2 0  9992
2 60499  97.3779 210.6316 0002732 163.5491 196.5849 15.47762977 95263
Epoch: 2026-05-06T04:58Z
TLE epoch observation values (Epoch: 2026-05-06T04:58:46.048Z)
Latitude
0.00006°
Longitude
-88.13155°
Altitude
428.182 km
Speed
7.654 km/s
True Right ascension
14h 02m 31s
True Declination
0° 00' 00"
Sunlit
Object was in full shadow at epoch
Visualization orbit readout
Latitude
Unknown
Longitude
Unknown
Altitude
Unknown
Speed
Unknown
Apparent Right ascension
Unknown
Apparent Declination
Unknown
Sunlit
N/A
Visualization observer readout
Local Sidereal Time
20:42:13
Azimuth
Unknown
Elevation
Unknown
Doppler factor
Unknown
Orbital elements
Apogee altitude
422.057 km
Perigee altitude
418.342 km
Semi-major axis
6,798.336 km
Eccentricity
0.00027
Inclination
97.3779°
RAAN
210.6316°
Arg. of periapsis
163.5491°
True anomaly
196.57597°
Mean anomaly
196.5849°
Eccentric anomaly
196.58043°
Mean motion
3.87203 °/min
Orbital period
92.97 mins
BSTAR
0.0015743
Loading maneuver chart data...
Computing Atmospheric mass density...
Loading historical data...
Loading historical data...
Loading historical data...
Loading historical data...
Loading historical data...
Loading historical data...
Loading historical data...

Documentation

Showing up to 5 results
|